Tracking 20621 objects as of 31-Mar-2020
HD Live streaming from Space Station
objects crossing your sky now

SL-12 DEB

Track SL-12 DEB now!
10-day predictions


NORAD ID: 44559
Int'l Code: 2010-041AE
Perigee: 364.1 km
Apogee: 18,366.6 km
Inclination: 64.7 °
Period: 327.4 minutes
Semi major axis: 15736 km
RCS: Unknown
Launch date: September 2, 2010
Source: Commonwealth of Independent States (former USSR) (CIS)
Launch site: ()

Note: This is SATELLITE DEBRIS
aabbcc
Your satellite tracking list
Your tracking list is empty




NASA's NSSDC Master Catalog

Two Line Element Set (TLE):
1 44559U 10041AE  20085.42284893 +.00024042 +00000-0 +12572-1 0  9998
2 44559 064.7312 208.4442 5720029 027.6960 353.5934 04.39790531009182
Source of the keplerian elements: AFSPC